This is the latest recevied weather packets stored in our database for station/object KW4UJ. If no packets are shown the sender has not sent any weather packets the latest 10 day(s).
| Time | Temp. | Humidity | Pressure | Rain* | Wind** | Luminosity | Snow |
|---|---|---|---|---|---|---|---|
| 1777838642 | 16.67° C | 30% | 1014.8 hPa | 0 mm | - | 524 W/m² | - |
| 1777838339 | 16.67° C | 31% | 1014.8 hPa | 0 mm | - | 541 W/m² | - |
| 1777838036 | 16.67° C | 31% | 1015 hPa | 0 mm | - | 574 W/m² | - |
| 1777837733 | 16.67° C | 30% | 1014.8 hPa | 0 mm | - | 575 W/m² | - |
| 1777837429 | 16.67° C | 32% | 1015.1 hPa | 0 mm | - | 563 W/m² | - |
| 1777837126 | 16.67° C | 32% | 1014.8 hPa | 0 mm | - | 571 W/m² | - |
| 1777836821 | 16.67° C | 31% | 1015 hPa | 0 mm | - | 589 W/m² | - |
| 1777836517 | 16.67° C | 32% | 1015.1 hPa | 0 mm | - | 591 W/m² | - |
| 1777836213 | 16.11° C | 31% | 1015.2 hPa | 0 mm | - | 602 W/m² | - |
| 1777835910 | 16.67° C | 31% | 1015.3 hPa | 0 mm | - | 609 W/m² | - |
| 1777835607 | 16.67° C | 33% | 1015.4 hPa | 0 mm | - | 622 W/m² | - |
| 1777835303 | 16.11° C | 32% | 1015.2 hPa | 0 mm | - | 626 W/m² | - |
| 1777835001 | 16.11° C | 32% | 1015.7 hPa | 0 mm | - | 174 W/m² | - |
| 1777834698 | 15.56° C | 33% | 1015.6 hPa | 0 mm | - | 673 W/m² | - |
| 1777834394 | 15.56° C | 33% | 1015.7 hPa | 0 mm | - | 663 W/m² | - |
| 1777834094 | 15.56° C | 32% | 1015.7 hPa | 0 mm | - | 361 W/m² | - |
| 1777833790 | 16.11° C | 33% | 1015.9 hPa | 0 mm | - | 687 W/m² | - |
| 1777833486 | 15.56° C | 35% | 1015.8 hPa | 0 mm | - | 692 W/m² | - |
| 1777833184 | 15.56° C | 34% | 1015.8 hPa | 0 mm | - | 489 W/m² | - |
| 1777832881 | 16.11° C | 34% | 1016.2 hPa | 0 mm | - | 696 W/m² | - |
| 1777832580 | 16.11° C | 35% | 1015.9 hPa | 0 mm | - | 706 W/m² | - |
| 1777832276 | 15.56° C | 35% | 1016 hPa | 0 mm | - | 695 W/m² | - |
| 1777831973 | 15.56° C | 35% | 1015.9 hPa | 0 mm | - | 685 W/m² | - |
| 1777831670 | 15° C | 37% | 1015.9 hPa | 0 mm | - | 693 W/m² | - |
| 1777831368 | 15° C | 35% | 1016.2 hPa | 0 mm | - | 700 W/m² | - |
* Rain latest hour (hover to see other rain measurements)
** Current wind speed in m/s (hover to see current wind gust speed)